{"data":{"norad_id":66196,"epoch":"2026-09-19T23:34:32.136096Z","epoch_age_seconds":145112,"freshness":"FRESH","line1":"1 66196U 25243V   26262.98231639  .00017675  00000+0  53291-3 0  9991","line2":"2 66196  53.1613  61.8795 0001054  89.9284 270.1840 15.34407123 50417","mean_motion":15.34407123,"eccentricity":0.0001054,"inclination_deg":53.1613,"raan_deg":61.8795,"arg_perigee_deg":89.9284,"mean_anomaly_deg":270.184,"bstar":0.00053291,"rev_number":5041,"period_min":93.847322422786,"perigee_km":461.961046902,"apogee_km":463.4030915618,"semimajor_km":6840.8190692319,"source":"CELESTRAK","updated_at":"2026-09-21T09:00:35.837567Z"}}